Skip Page Navigation
NASA JPL Caltech
NASA Logo - Jet Propulsion Laboratory + View the NASA Portal
+ Center for Near-Earth Object Studies
JPL Home Earth Solar System Stars & Galaxies Technology
JPL Solar System Dynamics
BODIES ORBITS EPHEMERIDES TOOLS PHYSICAL DATA DISCOVERY FAQ SITE MAP
JPL Small-Body Database Browser
Search: [ help ]  
487585 (2015 FM332)
Classification: Inner Main-belt Asteroid          SPK-ID: 2487585
Ephemeris | Orbit Diagram | Orbital Elements | Mission Design | Physical Parameters | Discovery Circumstances ]

[ show orbit diagram ]
Orbital Elements at Epoch 2459000.5 (2020-May-31.0) TDB
Reference: JPL 11 (heliocentric ecliptic J2000)
 Element Value Uncertainty (1-sigma)   Units 
e .0748304229211314 1.5425e-07  
a 1.816351307161719 1.533e-08 au
q 1.680432970673458 2.7635e-07 au
i 18.36230704039452 1.3737e-05 deg
node 193.1334707108007 1.7866e-05 deg
peri 230.2363832714601 7.1175e-05 deg
M 161.1461459079112 6.8232e-05 deg
tp 2458600.264483049889
(2019-Apr-26.76448305)
0.00016819 TDB
period 894.1249279668098
2.45
1.132e-05
3.099e-08
d
yr
n .402628300296492 5.0974e-09 deg/d
Q 1.95226964364998 1.6478e-08 au
  Orbit Determination Parameters
   # obs. used (total)      57  
   data-arc span      4958 days (13.57 yr)  
   first obs. used      2006-09-26  
   last obs. used      2020-04-23  
   planetary ephem.      DE431  
   SB-pert. ephem.      SB431-N16  
   condition code      0  
   norm. resid. RMS      .59936  
   source      ORB  
   producer      Otto Matic  
   solution date      2020-May-22 05:27:27  

Additional Information
 Earth MOID = .715026 au 
 Jupiter MOID = 3.22375 au 
 T_jup = 3.983 
[ show covariance matrix ]

Ephemeris | Orbit Diagram | Orbital Elements | Mission Design | Physical Parameters | Discovery Circumstances ]

Physical Parameter Table
Parameter Symbol Value Units Sigma Reference Notes
absolute magnitude H 19.3   n/a E2016-TE9  

487585 (2015 FM332)          Discovered 2006-Sep-26 by Spacewatch at Kitt Peak
Reference: Last Updated: 2017-03-14

Alternate Designations
 2015 FM332 = 2006 SK229 = 2011 SL85 
Ephemeris | Orbit Diagram | Orbital Elements | Mission Design | Physical Parameters | Discovery Circumstances ]
ABOUT SSD CREDITS/AWARDS PRIVACY/COPYRIGHT GLOSSARY LINKS
FirstGov 2020-Jul-06 18:49 UT
(server date/time)  
NASA Home Page
Site Manager:   Ryan S. Park
Webmaster  Alan B. Chamberlin